Home   Weather   Tuba City   Past weeks

Flag for USA Past Weather in Tuba City, Arizona, USA — Yesterday and Last 2 Weeks

Now
46 °F

Clear.


Feels Like: 42 °F
Forecast: 46 / 71 °F
Wind: 8 mph from Southwest

Location: Grand Canyon National Park Airport

Current Time: Apr 27, 2017 at 3:38:15 am

Latest Report: Apr 27, 2017 at 2:54 am


Visibility: 10 mi

Pressure: 29.64 "Hg (24.67 "Hg at 1510m altitude)

Humidity: 48%

Dew Point: 27 °F

Location of Tuba CityLocation

Past Weather in Tuba City — Graph

°F

Tuba City Temperature Yesterday

Maximum temperature yesterday: 62 °F (at 2:54 pm)
Minimum temperature yesterday: 19 °F (at 5:54 am)
Average temperature yesterday: 46 °F

High & Low Weather Summary for the Past Weeks

 TemperatureHumidityPressure
High72 °F (Apr 23, 2:54 pm)89% (Apr 18, 6:54 am)30.08 "Hg (Apr 18, 6:54 am)
Low19 °F (Apr 26, 5:54 am)9% (Apr 20, 4:54 pm)29.52 "Hg (Apr 25, 2:54 am)
Average49 °F40%29.91 "Hg
* Reported Apr 12 1:54 am — Apr 27 1:54 am, Tuba City, Weather by CustomWeather, © 2017

Note: Actual official high and low records may vary slightly from our data, if they occured in-between our weather recording intervals... More about our weather records

Advertising

Tuba City Weather History for the Previous 24 Hours

Scroll right to see more
 ConditionsComfort  
Time TempWeatherWind HumidityBarometerVisibility
1:54 am
Thu, Apr 27
47 °FClear.8 mph46%29.66 "Hg10 mi
12:54 am47 °FClear.12 mph44%29.67 "Hg10 mi
11:54 pm
Wed, Apr 26
49 °FClear.13 mph39%29.68 "Hg10 mi
10:54 pm50 °FClear.13 mph38%29.69 "Hg10 mi
9:54 pm54 °FClear.15 mph33%29.67 "Hg10 mi
8:54 pm56 °FPartly cloudy.16 mph30%29.70 "Hg10 mi
7:54 pm58 °FPartly sunny.9 mph35%29.75 "Hg10 mi
6:54 pm61 °FSunny.10 mph30%29.79 "Hg10 mi
5:54 pm62 °FSunny.17 mph27%29.78 "Hg10 mi
4:54 pm62 °FPassing clouds.14 mph27%29.80 "Hg10 mi
3:54 pm62 °FPartly sunny.17 mph29%29.81 "Hg10 mi
2:54 pm62 °FSunny.15 mph25%29.82 "Hg10 mi
1:54 pm61 °FPartly sunny.17 mph23%29.84 "Hg10 mi
1:23 pm59 °FPartly sunny.10 mph23%29.99 "Hg10 mi
12:54 pm57 °FSunny.12 mph24%29.85 "Hg10 mi
11:54 am54 °FScattered clouds.N/A25%29.88 "Hg10 mi
10:54 am51 °FSunny.N/A25%29.88 "Hg10 mi
9:54 am49 °FSunny.9 mph29%29.87 "Hg10 mi
8:54 am44 °FSunny.3 mph34%29.88 "Hg10 mi
7:54 am32 °FSunny.3 mph52%29.91 "Hg10 mi
6:54 am20 °FSunny.No wind74%29.95 "Hg10 mi
5:54 am19 °FClear.3 mph74%29.94 "Hg10 mi
4:54 am22 °FClear.No wind68%29.90 "Hg10 mi
3:54 am23 °FClear.5 mph68%29.92 "Hg10 mi
Weather by CustomWeather, © 2017

See weather overviewHow to use our weather pages